owner,sensor,date,latitude,longitude,vertical_datum,wind_speed,wind_to_direction,wind_speed_of_gust,qcFlag 
NDBC,ioos:station:wmo:42003:1,2014-10-15T23:50:00Z,26.0070,-85.6480,5.0,7.0,330.0,9.0,'1111122,1111122,1111122' 
NDBC,ioos:station:wmo:42003:1,2014-10-16T00:50:00Z,26.0070,-85.6480,5.0,6.0,330.0,8.0,'1111122,1111122,1111122' 
NDBC,ioos:station:wmo:42003:1,2014-10-16T01:50:00Z,26.0070,-85.6480,5.0,5.0,330.0,7.0,'1111122,1111122,1111122' 
NDBC,ioos:station:wmo:42003:1,2014-10-16T02:50:00Z,26.0070,-85.6480,5.0,3.0,320.0,5.0,'1111122,1111122,1111122' 
NDBC,ioos:station:wmo:42003:1,2014-10-16T03:50:00Z,26.0070,-85.6480,5.0,3.0,310.0,4.0,'1111122,1111122,1111122' 
NDBC,ioos:station:wmo:42003:1,2014-10-16T04:50:00Z,26.0070,-85.6480,5.0,2.0,300.0,5.0,'1111122,1111122,1111122' 
NDBC,ioos:station:wmo:42003:1,2014-10-16T05:50:00Z,26.0070,-85.6480,5.0,4.0,300.0,4.0,'1111122,1111122,1111122' 
NDBC,ioos:station:wmo:42003:1,2014-10-16T06:50:00Z,26.0070,-85.6480,5.0,3.0,310.0,5.0,'1111122,1111122,1111122' 
NDBC,ioos:station:wmo:42003:1,2014-10-16T07:50:00Z,26.0070,-85.6480,5.0,3.0,330.0,5.0,'1111122,1111122,1111122' 
NDBC,ioos:station:wmo:42003:1,2014-10-16T08:50:00Z,26.0070,-85.6480,5.0,3.0,330.0,5.0,'1111122,1111122,1111122' 
NDBC,ioos:station:wmo:42003:1,2014-10-16T09:50:00Z,26.0070,-85.6480,5.0,4.0,320.0,5.0,'1111122,1111122,1111122' 
NDBC,ioos:station:wmo:42003:1,2014-10-16T10:50:00Z,26.0070,-85.6480,5.0,5.0,310.0,6.0,'1111122,1111122,1111122' 
NDBC,ioos:station:wmo:42003:1,2014-10-16T11:50:00Z,26.0070,-85.6480,5.0,3.0,290.0,5.0,'1111122,1111122,1111122' 
NDBC,ioos:station:wmo:42003:1,2014-10-16T12:50:00Z,26.0070,-85.6480,5.0,4.0,310.0,6.0,'1111122,1111122,1111122' 
NDBC,ioos:station:wmo:42003:1,2014-10-16T13:50:00Z,26.0070,-85.6480,5.0,5.0,320.0,6.0,'1111122,1111122,1111122' 
NDBC,ioos:station:wmo:42003:1,2014-10-16T14:50:00Z,26.0070,-85.6480,5.0,4.0,300.0,6.0,'1111122,1111122,1111122' 
NDBC,ioos:station:wmo:42003:1,2014-10-16T15:50:00Z,26.0070,-85.6480,5.0,4.0,320.0,6.0,'1111122,1111122,1111122' 
NDBC,ioos:station:wmo:42003:1,2014-10-16T16:50:00Z,26.0070,-85.6480,5.0,5.0,320.0,7.0,'1111122,1111122,1111122' 
NDBC,ioos:station:wmo:42003:1,2014-10-16T17:50:00Z,26.0070,-85.6480,5.0,5.0,320.0,6.0,'1111122,1111122,1111122' 
NDBC,ioos:station:wmo:42003:1,2014-10-16T18:50:00Z,26.0070,-85.6480,5.0,5.0,310.0,7.0,'1111122,1111122,1111122' 
NDBC,ioos:station:wmo:42003:1,2014-10-16T19:50:00Z,26.0070,-85.6480,5.0,5.0,310.0,7.0,'1111122,1111122,1111122' 
NDBC,ioos:station:wmo:42003:1,2014-10-16T20:50:00Z,26.0070,-85.6480,5.0,6.0,320.0,8.0,'1111122,1111122,1111122' 
NDBC,ioos:station:wmo:42003:1,2014-10-16T21:50:00Z,26.0070,-85.6480,5.0,7.0,330.0,8.0,'1111122,1111122,1111122' 
NDBC,ioos:station:wmo:42003:1,2014-10-16T22:50:00Z,26.0070,-85.6480,5.0,7.0,320.0,9.0,'1111122,1111122,1111122' 
NDBC,ioos:station:wmo:42003:1,2014-10-16T23:50:00Z,26.0070,-85.6480,5.0,6.0,330.0,9.0,'1111122,1111122,1111122' 
NDBC,ioos:station:wmo:42003:1,2014-10-17T00:50:00Z,26.0070,-85.6480,5.0,6.0,330.0,8.0,'1111122,1111122,1111122' 
NDBC,ioos:station:wmo:42003:1,2014-10-17T01:50:00Z,26.0070,-85.6480,5.0,6.0,340.0,8.0,'1111122,1111122,1111122' 
NDBC,ioos:station:wmo:42003:1,2014-10-17T02:50:00Z,26.0070,-85.6480,5.0,4.0,340.0,7.0,'1111122,1111122,1111122' 
NDBC,ioos:station:wmo:42003:1,2014-10-17T03:50:00Z,26.0070,-85.6480,5.0,5.0,360.0,6.0,'1111122,1111122,1111122' 
NDBC,ioos:station:wmo:42003:1,2014-10-17T04:50:00Z,26.0070,-85.6480,5.0,4.0,30.0,5.0,'1111122,1111122,1111122' 
NDBC,ioos:station:wmo:42003:1,2014-10-17T05:50:00Z,26.0070,-85.6480,5.0,3.0,340.0,5.0,'1111122,1111122,1111122' 
NDBC,ioos:station:wmo:42003:1,2014-10-17T06:50:00Z,26.0070,-85.6480,5.0,2.0,30.0,5.0,'1111122,1111122,1111122' 
NDBC,ioos:station:wmo:42003:1,2014-10-17T07:50:00Z,26.0070,-85.6480,5.0,1.0,350.0,2.0,'1111122,1111122,1111122' 
NDBC,ioos:station:wmo:42003:1,2014-10-17T08:50:00Z,26.0070,-85.6480,5.0,0.0,-9999.0,2.0,'1114422,1111122,1111122' 
NDBC,ioos:station:wmo:42003:1,2014-10-17T09:50:00Z,26.0070,-85.6480,5.0,2.0,330.0,3.0,'1111122,1111122,1111122' 
NDBC,ioos:station:wmo:42003:1,2014-10-17T10:50:00Z,26.0070,-85.6480,5.0,1.0,40.0,2.0,'1111122,1111122,1111122' 
NDBC,ioos:station:wmo:42003:1,2014-10-17T11:50:00Z,26.0070,-85.6480,5.0,1.0,20.0,3.0,'1111122,1111122,1111122' 
NDBC,ioos:station:wmo:42003:1,2014-10-17T12:50:00Z,26.0070,-85.6480,5.0,1.0,30.0,2.0,'1111122,1111122,1111122' 
NDBC,ioos:station:wmo:42003:1,2014-10-17T13:50:00Z,26.0070,-85.6480,5.0,1.0,60.0,2.0,'1111122,1111122,1111122' 
NDBC,ioos:station:wmo:42003:1,2014-10-17T14:50:00Z,26.0070,-85.6480,5.0,2.0,10.0,3.0,'1111122,1111122,1111122' 
NDBC,ioos:station:wmo:42003:1,2014-10-17T15:50:00Z,26.0070,-85.6480,5.0,1.0,40.0,3.0,'1111122,1111122,1111122' 
NDBC,ioos:station:wmo:42003:1,2014-10-17T16:50:00Z,26.0070,-85.6480,5.0,1.0,350.0,1.0,'1111122,1111122,1111122' 
NDBC,ioos:station:wmo:42003:1,2014-10-17T17:50:00Z,26.0070,-85.6480,5.0,1.0,350.0,3.0,'1111122,1111122,1111122' 
NDBC,ioos:station:wmo:42003:1,2014-10-17T18:50:00Z,26.0070,-85.6480,5.0,2.0,330.0,4.0,'1111122,1111122,1111122' 
NDBC,ioos:station:wmo:42003:1,2014-10-17T19:50:00Z,26.0070,-85.6480,5.0,2.0,330.0,4.0,'1111122,1111122,1111122' 
NDBC,ioos:station:wmo:42003:1,2014-10-17T20:50:00Z,26.0070,-85.6480,5.0,4.0,330.0,5.0,'1111122,1111122,1111122' 
NDBC,ioos:station:wmo:42003:1,2014-10-17T21:50:00Z,26.0070,-85.6480,5.0,3.0,330.0,4.0,'1111122,1111122,1111122' 
NDBC,ioos:station:wmo:42003:1,2014-10-17T22:50:00Z,26.0070,-85.6480,5.0,4.0,340.0,6.0,'1111122,1111122,1111122' 
NDBC,ioos:station:wmo:42003:1,2014-10-17T23:50:00Z,26.0070,-85.6480,5.0,3.0,340.0,5.0,'1111122,1111122,1111122' 
NDBC,ioos:station:wmo:42003:1,2014-10-18T00:50:00Z,26.0070,-85.6480,5.0,3.0,340.0,4.0,'1111122,1111122,1111122' 
NDBC,ioos:station:wmo:42003:1,2014-10-18T01:50:00Z,26.0070,-85.6480,5.0,3.0,20.0,5.0,'1111122,1111122,1111122' 
NDBC,ioos:station:wmo:42003:1,2014-10-18T02:50:00Z,26.0070,-85.6480,5.0,3.0,350.0,4.0,'1111122,1111122,1111122' 
NDBC,ioos:station:wmo:42003:1,2014-10-18T03:50:00Z,26.0070,-85.6480,5.0,3.0,360.0,4.0,'1111122,1111122,1111122' 
NDBC,ioos:station:wmo:42003:1,2014-10-18T04:50:00Z,26.0070,-85.6480,5.0,2.0,30.0,3.0,'1111122,1111122,1111122' 
NDBC,ioos:station:wmo:42003:1,2014-10-18T05:50:00Z,26.0070,-85.6480,5.0,1.0,40.0,1.0,'1111122,1111122,1111122' 
NDBC,ioos:station:wmo:42003:1,2014-10-18T06:50:00Z,26.0070,-85.6480,5.0,2.0,30.0,3.0,'1111122,1111122,1111122' 
NDBC,ioos:station:wmo:42003:1,2014-10-18T07:50:00Z,26.0070,-85.6480,5.0,1.0,40.0,2.0,'1111122,1111122,1111122' 
NDBC,ioos:station:wmo:42003:1,2014-10-18T08:50:00Z,26.0070,-85.6480,5.0,3.0,30.0,4.0,'1111122,1111122,1111122' 
NDBC,ioos:station:wmo:42003:1,2014-10-18T09:50:00Z,26.0070,-85.6480,5.0,3.0,30.0,4.0,'1111122,1111122,1111122' 
NDBC,ioos:station:wmo:42003:1,2014-10-18T10:50:00Z,26.0070,-85.6480,5.0,2.0,10.0,3.0,'1111122,1111122,1111122' 
NDBC,ioos:station:wmo:42003:1,2014-10-18T11:50:00Z,26.0070,-85.6480,5.0,4.0,330.0,5.0,'1111122,1111122,1111122' 
NDBC,ioos:station:wmo:42003:1,2014-10-18T12:50:00Z,26.0070,-85.6480,5.0,2.0,330.0,4.0,'1111122,1111122,1111122' 
NDBC,ioos:station:wmo:42003:1,2014-10-18T13:50:00Z,26.0070,-85.6480,5.0,3.0,330.0,4.0,'1111122,1111122,1111122' 
NDBC,ioos:station:wmo:42003:1,2014-10-18T14:50:00Z,26.0070,-85.6480,5.0,3.0,330.0,5.0,'1111122,1111122,1111122' 
NDBC,ioos:station:wmo:42003:1,2014-10-18T15:50:00Z,26.0070,-85.6480,5.0,3.0,360.0,4.0,'1111122,1111122,1111122' 
NDBC,ioos:station:wmo:42003:1,2014-10-18T16:50:00Z,26.0070,-85.6480,5.0,3.0,350.0,5.0,'1111122,1111122,1111122' 
NDBC,ioos:station:wmo:42003:1,2014-10-18T17:50:00Z,26.0070,-85.6480,5.0,4.0,330.0,6.0,'1111122,1111122,1111122' 
NDBC,ioos:station:wmo:42003:1,2014-10-18T18:50:00Z,26.0070,-85.6480,5.0,4.0,330.0,6.0,'1111122,1111122,1111122' 
NDBC,ioos:station:wmo:42003:1,2014-10-18T19:50:00Z,26.0070,-85.6480,5.0,4.0,340.0,6.0,'1111122,1111122,1111122' 
NDBC,ioos:station:wmo:42003:1,2014-10-18T20:50:00Z,26.0070,-85.6480,5.0,4.0,350.0,5.0,'1111122,1111122,1111122' 
NDBC,ioos:station:wmo:42003:1,2014-10-18T21:50:00Z,26.0070,-85.6480,5.0,4.0,10.0,6.0,'1111122,1111122,1111122' 
NDBC,ioos:station:wmo:42003:1,2014-10-18T22:50:00Z,26.0070,-85.6480,5.0,3.0,20.0,5.0,'1111122,1111122,1111122' 
NDBC,ioos:station:wmo:42003:1,2014-10-18T23:50:00Z,26.0070,-85.6480,5.0,4.0,350.0,5.0,'1111122,1111122,1111122' 
NDBC,ioos:station:wmo:42003:1,2014-10-19T00:50:00Z,26.0070,-85.6480,5.0,3.0,360.0,5.0,'1111122,1111122,1111122' 
NDBC,ioos:station:wmo:42003:1,2014-10-19T01:50:00Z,26.0070,-85.6480,5.0,2.0,350.0,4.0,'1111122,1111122,1111122' 
NDBC,ioos:station:wmo:42003:1,2014-10-19T02:50:00Z,26.0070,-85.6480,5.0,3.0,340.0,4.0,'1111122,1111122,1111122' 
NDBC,ioos:station:wmo:42003:1,2014-10-19T03:50:00Z,26.0070,-85.6480,5.0,3.0,330.0,4.0,'1111122,1111122,1111122' 
NDBC,ioos:station:wmo:42003:1,2014-10-19T04:50:00Z,26.0070,-85.6480,5.0,3.0,360.0,5.0,'1111122,1111122,1111122' 
NDBC,ioos:station:wmo:42003:1,2014-10-19T06:50:00Z,26.0070,-85.6480,5.0,4.0,340.0,5.0,'1111122,1111122,1111122' 
NDBC,ioos:station:wmo:42003:1,2014-10-19T07:50:00Z,26.0070,-85.6480,5.0,4.0,330.0,6.0,'1111122,1111122,1111122' 
NDBC,ioos:station:wmo:42003:1,2014-10-19T08:50:00Z,26.0070,-85.6480,5.0,3.0,360.0,4.0,'1111122,1111122,1111122' 
NDBC,ioos:station:wmo:42003:1,2014-10-19T09:50:00Z,26.0070,-85.6480,5.0,4.0,360.0,6.0,'1111122,1111122,1111122' 
NDBC,ioos:station:wmo:42003:1,2014-10-19T10:50:00Z,26.0070,-85.6480,5.0,4.0,10.0,5.0,'1111122,1111122,1111122' 
NDBC,ioos:station:wmo:42003:1,2014-10-19T11:50:00Z,26.0070,-85.6480,5.0,5.0,20.0,7.0,'1111122,1111122,1111122' 
NDBC,ioos:station:wmo:42003:1,2014-10-19T12:50:00Z,26.0070,-85.6480,5.0,5.0,50.0,6.0,'1111122,1111122,1111122' 
NDBC,ioos:station:wmo:42003:1,2014-10-19T13:50:00Z,26.0070,-85.6480,5.0,3.0,40.0,5.0,'1111122,1111122,1111122' 
NDBC,ioos:station:wmo:42003:1,2014-10-19T14:50:00Z,26.0070,-85.6480,5.0,4.0,40.0,6.0,'1111122,1111122,1111122' 
NDBC,ioos:station:wmo:42003:1,2014-10-19T15:50:00Z,26.0070,-85.6480,5.0,4.0,70.0,5.0,'1111122,1111122,1111122' 
NDBC,ioos:station:wmo:42003:1,2014-10-19T16:50:00Z,26.0070,-85.6480,5.0,3.0,50.0,4.0,'1111122,1111122,1111122' 
NDBC,ioos:station:wmo:42003:1,2014-10-19T17:50:00Z,26.0070,-85.6480,5.0,3.0,70.0,5.0,'1111122,1111122,1111122' 
NDBC,ioos:station:wmo:42003:1,2014-10-19T18:50:00Z,26.0070,-85.6480,5.0,3.0,70.0,5.0,'1111122,1111122,1111122' 
NDBC,ioos:station:wmo:42003:1,2014-10-19T19:50:00Z,26.0070,-85.6480,5.0,3.0,50.0,5.0,'1111122,1111122,1111122' 
NDBC,ioos:station:wmo:42003:1,2014-10-19T20:50:00Z,26.0070,-85.6480,5.0,4.0,40.0,5.0,'1111122,1111122,1111122' 
NDBC,ioos:station:wmo:42003:1,2014-10-19T21:50:00Z,26.0070,-85.6480,5.0,3.0,60.0,4.0,'1111122,1111122,1111122' 
NDBC,ioos:station:wmo:42003:1,2014-10-19T22:50:00Z,26.0070,-85.6480,5.0,4.0,60.0,6.0,'1111122,1111122,1111122' 
NDBC,ioos:station:wmo:42003:1,2014-10-19T23:50:00Z,26.0070,-85.6480,5.0,4.0,70.0,5.0,'1111122,1111122,1111122' 
NDBC,ioos:station:wmo:42003:1,2014-10-20T00:50:00Z,26.0070,-85.6480,5.0,4.0,60.0,7.0,'1111122,1111122,1111122' 
NDBC,ioos:station:wmo:42003:1,2014-10-20T01:50:00Z,26.0070,-85.6480,5.0,5.0,80.0,7.0,'1111122,1111122,1111122' 
NDBC,ioos:station:wmo:42003:1,2014-10-20T02:50:00Z,26.0070,-85.6480,5.0,3.0,100.0,5.0,'1111122,1111122,1111122' 
NDBC,ioos:station:wmo:42003:1,2014-10-20T04:50:00Z,26.0070,-85.6480,5.0,5.0,80.0,6.0,'1111122,1111122,1111122' 
NDBC,ioos:station:wmo:42003:1,2014-10-20T06:50:00Z,26.0070,-85.6480,5.0,5.0,90.0,7.0,'1111122,1111122,1111122' 
NDBC,ioos:station:wmo:42003:1,2014-10-20T07:50:00Z,26.0070,-85.6480,5.0,5.0,80.0,6.0,'1111122,1111122,1111122' 
NDBC,ioos:station:wmo:42003:1,2014-10-20T08:50:00Z,26.0070,-85.6480,5.0,5.0,110.0,8.0,'1111122,1111122,1111122' 
NDBC,ioos:station:wmo:42003:1,2014-10-20T09:50:00Z,26.0070,-85.6480,5.0,5.0,100.0,6.0,'1111122,1111122,1111122' 
NDBC,ioos:station:wmo:42003:1,2014-10-20T10:50:00Z,26.0070,-85.6480,5.0,5.0,110.0,6.0,'1111122,1111122,1111122' 
NDBC,ioos:station:wmo:42003:1,2014-10-20T11:50:00Z,26.0070,-85.6480,5.0,5.0,120.0,6.0,'1111122,1111122,1111122' 
NDBC,ioos:station:wmo:42003:1,2014-10-20T12:50:00Z,26.0070,-85.6480,5.0,5.0,110.0,7.0,'1111122,1111122,1111122' 
NDBC,ioos:station:wmo:42003:1,2014-10-20T13:50:00Z,26.0070,-85.6480,5.0,6.0,120.0,7.0,'1111122,1111122,1111122' 
NDBC,ioos:station:wmo:42003:1,2014-10-20T15:50:00Z,26.0070,-85.6480,5.0,5.0,110.0,6.0,'1111122,1111122,1111122' 
NDBC,ioos:station:wmo:42003:1,2014-10-20T16:50:00Z,26.0070,-85.6480,5.0,4.0,110.0,5.0,'1111122,1111122,1111122' 
NDBC,ioos:station:wmo:42003:1,2014-10-20T18:50:00Z,26.0070,-85.6480,5.0,2.0,130.0,3.0,'1111122,1111122,1111122' 
NDBC,ioos:station:wmo:42003:1,2014-10-20T19:50:00Z,26.0070,-85.6480,5.0,2.0,70.0,3.0,'1111122,1111122,1111122' 
NDBC,ioos:station:wmo:42003:1,2014-10-20T20:50:00Z,26.0070,-85.6480,5.0,2.0,90.0,3.0,'1111122,1111122,1111122' 
NDBC,ioos:station:wmo:42003:1,2014-10-20T21:50:00Z,26.0070,-85.6480,5.0,2.0,80.0,3.0,'1111122,1111122,1111122' 
NDBC,ioos:station:wmo:42003:1,2014-10-20T22:50:00Z,26.0070,-85.6480,5.0,2.0,40.0,3.0,'1111122,1111122,1111122' 
NDBC,ioos:station:wmo:42003:1,2014-10-20T23:50:00Z,26.0070,-85.6480,5.0,3.0,40.0,4.0,'1111122,1111122,1111122' 
NDBC,ioos:station:wmo:42003:1,2014-10-21T01:50:00Z,26.0070,-85.6480,5.0,4.0,50.0,6.0,'1111122,1111122,1111122' 
NDBC,ioos:station:wmo:42003:1,2014-10-21T02:50:00Z,26.0070,-85.6480,5.0,4.0,50.0,6.0,'1111122,1111122,1111122' 
NDBC,ioos:station:wmo:42003:1,2014-10-21T03:50:00Z,26.0070,-85.6480,5.0,4.0,80.0,6.0,'1111122,1111122,1111122' 
NDBC,ioos:station:wmo:42003:1,2014-10-21T04:50:00Z,26.0070,-85.6480,5.0,4.0,70.0,5.0,'1111122,1111122,1111122' 
NDBC,ioos:station:wmo:42003:1,2014-10-21T05:50:00Z,26.0070,-85.6480,5.0,3.0,50.0,4.0,'1111122,1111122,1111122' 
NDBC,ioos:station:wmo:42003:1,2014-10-21T06:50:00Z,26.0070,-85.6480,5.0,3.0,30.0,5.0,'1111122,1111122,1111122' 
NDBC,ioos:station:wmo:42003:1,2014-10-21T07:50:00Z,26.0070,-85.6480,5.0,4.0,10.0,5.0,'1111122,1111122,1111122' 
NDBC,ioos:station:wmo:42003:1,2014-10-21T08:50:00Z,26.0070,-85.6480,5.0,3.0,30.0,3.0,'1111122,1111122,1111122' 
NDBC,ioos:station:wmo:42003:1,2014-10-21T09:50:00Z,26.0070,-85.6480,5.0,4.0,30.0,4.0,'1111122,1111122,1111122' 
NDBC,ioos:station:wmo:42003:1,2014-10-21T10:50:00Z,26.0070,-85.6480,5.0,4.0,40.0,5.0,'1111122,1111122,1111122' 
NDBC,ioos:station:wmo:42003:1,2014-10-21T11:50:00Z,26.0070,-85.6480,5.0,4.0,30.0,5.0,'1111122,1111122,1111122' 
NDBC,ioos:station:wmo:42003:1,2014-10-21T12:50:00Z,26.0070,-85.6480,5.0,3.0,60.0,4.0,'1111122,1111122,1111122' 
NDBC,ioos:station:wmo:42003:1,2014-10-21T13:50:00Z,26.0070,-85.6480,5.0,3.0,80.0,5.0,'1111122,1111122,1111122' 
NDBC,ioos:station:wmo:42003:1,2014-10-21T14:50:00Z,26.0070,-85.6480,5.0,3.0,60.0,4.0,'1111122,1111122,1111122' 
NDBC,ioos:station:wmo:42003:1,2014-10-21T15:50:00Z,26.0070,-85.6480,5.0,2.0,50.0,2.0,'1111122,1111122,1111122' 
NDBC,ioos:station:wmo:42003:1,2014-10-21T16:50:00Z,26.0070,-85.6480,5.0,3.0,30.0,4.0,'1111122,1111122,1111122' 
NDBC,ioos:station:wmo:42003:1,2014-10-21T17:50:00Z,26.0070,-85.6480,5.0,4.0,20.0,5.0,'1111122,1111122,1111122' 
NDBC,ioos:station:wmo:42003:1,2014-10-21T18:50:00Z,26.0070,-85.6480,5.0,4.0,70.0,7.0,'1111122,1111122,1111122' 
NDBC,ioos:station:wmo:42003:1,2014-10-21T19:50:00Z,26.0070,-85.6480,5.0,6.0,240.0,8.0,'1111122,1111122,1111122' 
NDBC,ioos:station:wmo:42003:1,2014-10-21T20:50:00Z,26.0070,-85.6480,5.0,1.0,200.0,2.0,'1111122,1111122,1111122' 
NDBC,ioos:station:wmo:42003:1,2014-10-21T22:50:00Z,26.0070,-85.6480,5.0,6.0,70.0,8.0,'1111122,1111122,1111122' 
NDBC,ioos:station:wmo:42003:1,2014-10-21T23:50:00Z,26.0070,-85.6480,5.0,6.0,80.0,7.0,'1111122,1111122,1111122' 
NDBC,ioos:station:wmo:42003:1,2014-10-22T00:50:00Z,26.0070,-85.6480,5.0,5.0,70.0,6.0,'1111122,1111122,1111122' 
NDBC,ioos:station:wmo:42003:1,2014-10-22T01:50:00Z,26.0070,-85.6480,5.0,5.0,60.0,6.0,'1111122,1111122,1111122' 
NDBC,ioos:station:wmo:42003:1,2014-10-22T02:50:00Z,26.0070,-85.6480,5.0,7.0,70.0,8.0,'1111122,1111122,1111122' 
NDBC,ioos:station:wmo:42003:1,2014-10-22T03:50:00Z,26.0070,-85.6480,5.0,5.0,70.0,7.0,'1111122,1111122,1111122' 
NDBC,ioos:station:wmo:42003:1,2014-10-22T04:50:00Z,26.0070,-85.6480,5.0,5.0,90.0,6.0,'1111122,1111122,1111122' 
NDBC,ioos:station:wmo:42003:1,2014-10-22T05:50:00Z,26.0070,-85.6480,5.0,5.0,70.0,7.0,'1111122,1111122,1111122' 
NDBC,ioos:station:wmo:42003:1,2014-10-22T06:50:00Z,26.0070,-85.6480,5.0,5.0,70.0,6.0,'1111122,1111122,1111122' 
NDBC,ioos:station:wmo:42003:1,2014-10-22T07:50:00Z,26.0070,-85.6480,5.0,6.0,60.0,8.0,'1111122,1111122,1111122' 
NDBC,ioos:station:wmo:42003:1,2014-10-22T08:50:00Z,26.0070,-85.6480,5.0,7.0,50.0,8.0,'1111122,1111122,1111122' 
NDBC,ioos:station:wmo:42003:1,2014-10-22T09:50:00Z,26.0070,-85.6480,5.0,7.0,60.0,8.0,'1111122,1111122,1111122' 
NDBC,ioos:station:wmo:42003:1,2014-10-22T10:50:00Z,26.0070,-85.6480,5.0,7.0,50.0,9.0,'1111122,1111122,1111122' 
NDBC,ioos:station:wmo:42003:1,2014-10-22T11:50:00Z,26.0070,-85.6480,5.0,8.0,60.0,9.0,'1111122,1111122,1111122' 
NDBC,ioos:station:wmo:42003:1,2014-10-22T12:50:00Z,26.0070,-85.6480,5.0,7.0,60.0,9.0,'1111122,1111122,1111122' 
NDBC,ioos:station:wmo:42003:1,2014-10-22T13:50:00Z,26.0070,-85.6480,5.0,9.0,70.0,11.0,'1111122,1111122,1111122' 
NDBC,ioos:station:wmo:42003:1,2014-10-22T14:50:00Z,26.0070,-85.6480,5.0,8.0,60.0,10.0,'1111122,1111122,1111122' 
NDBC,ioos:station:wmo:42003:1,2014-10-22T15:50:00Z,26.0070,-85.6480,5.0,9.0,50.0,10.0,'1111122,1111122,1111122' 
NDBC,ioos:station:wmo:42003:1,2014-10-22T16:50:00Z,26.0070,-85.6480,5.0,9.0,50.0,11.0,'1111122,1111122,1111122' 
NDBC,ioos:station:wmo:42003:1,2014-10-22T17:50:00Z,26.0070,-85.6480,5.0,8.0,60.0,10.0,'1111122,1111122,1111122' 
NDBC,ioos:station:wmo:42003:1,2014-10-22T18:50:00Z,26.0070,-85.6480,5.0,6.0,110.0,8.0,'1111122,1111122,1111122' 
NDBC,ioos:station:wmo:42003:1,2014-10-22T19:50:00Z,26.0070,-85.6480,5.0,5.0,80.0,6.0,'1111122,1111122,1111122' 
NDBC,ioos:station:wmo:42003:1,2014-10-22T20:50:00Z,26.0070,-85.6480,5.0,7.0,60.0,8.0,'1111122,1111122,1111122' 
NDBC,ioos:station:wmo:42003:1,2014-10-22T21:50:00Z,26.0070,-85.6480,5.0,7.0,60.0,8.0,'1111122,1111122,1111122' 
NDBC,ioos:station:wmo:42003:1,2014-10-22T22:50:00Z,26.0070,-85.6480,5.0,6.0,90.0,8.0,'1111122,1111122,1111122' 
NDBC,ioos:station:wmo:42003:1,2014-10-22T23:50:00Z,26.0070,-85.6480,5.0,8.0,50.0,10.0,'1111122,1111122,1111122' 
NDBC,ioos:station:wmo:42003:1,2014-10-23T00:50:00Z,26.0070,-85.6480,5.0,9.0,50.0,11.0,'1111122,1111122,1111122' 
NDBC,ioos:station:wmo:42003:1,2014-10-23T01:50:00Z,26.0070,-85.6480,5.0,9.0,50.0,10.0,'1111122,1111122,1111122' 
NDBC,ioos:station:wmo:42003:1,2014-10-23T02:50:00Z,26.0070,-85.6480,5.0,10.0,50.0,12.0,'1111122,1111122,1111122' 
NDBC,ioos:station:wmo:42003:1,2014-10-23T03:50:00Z,26.0070,-85.6480,5.0,9.0,50.0,12.0,'1111122,1111122,1111122' 
NDBC,ioos:station:wmo:42003:1,2014-10-23T04:50:00Z,26.0070,-85.6480,5.0,9.0,70.0,13.0,'1111122,1111122,1111122' 
NDBC,ioos:station:wmo:42003:1,2014-10-23T06:50:00Z,26.0070,-85.6480,5.0,10.0,40.0,11.0,'1111122,1111122,1111122' 
NDBC,ioos:station:wmo:42003:1,2014-10-23T07:50:00Z,26.0070,-85.6480,5.0,9.0,40.0,11.0,'1111122,1111122,1111122' 
NDBC,ioos:station:wmo:42003:1,2014-10-23T08:50:00Z,26.0070,-85.6480,5.0,10.0,40.0,12.0,'1111122,1111122,1111122' 
NDBC,ioos:station:wmo:42003:1,2014-10-23T09:50:00Z,26.0070,-85.6480,5.0,9.0,40.0,11.0,'1111122,1111122,1111122' 
NDBC,ioos:station:wmo:42003:1,2014-10-23T10:50:00Z,26.0070,-85.6480,5.0,10.0,40.0,11.0,'1111122,1111122,1111122' 
NDBC,ioos:station:wmo:42003:1,2014-10-23T11:50:00Z,26.0070,-85.6480,5.0,9.0,50.0,11.0,'1111122,1111122,1111122' 
NDBC,ioos:station:wmo:42003:1,2014-10-23T12:50:00Z,26.0070,-85.6480,5.0,10.0,50.0,12.0,'1111122,1111122,1111122' 
NDBC,ioos:station:wmo:42003:1,2014-10-23T13:50:00Z,26.0070,-85.6480,5.0,10.0,50.0,12.0,'1111122,1111122,1111122' 
NDBC,ioos:station:wmo:42003:1,2014-10-23T14:50:00Z,26.0070,-85.6480,5.0,10.0,50.0,12.0,'1111122,1111122,1111122' 
NDBC,ioos:station:wmo:42003:1,2014-10-23T15:50:00Z,26.0070,-85.6480,5.0,10.0,50.0,11.0,'1111122,1111122,1111122' 
NDBC,ioos:station:wmo:42003:1,2014-10-23T16:50:00Z,26.0070,-85.6480,5.0,10.0,50.0,11.0,'1111122,1111122,1111122' 
NDBC,ioos:station:wmo:42003:1,2014-10-23T18:50:00Z,26.0070,-85.6480,5.0,10.0,50.0,11.0,'1111122,1111122,1111122' 
NDBC,ioos:station:wmo:42003:1,2014-10-23T19:50:00Z,26.0070,-85.6480,5.0,9.0,50.0,11.0,'1111122,1111122,1111122' 
NDBC,ioos:station:wmo:42003:1,2014-10-23T20:50:00Z,26.0070,-85.6480,5.0,9.0,50.0,11.0,'1111122,1111122,1111122' 
NDBC,ioos:station:wmo:42003:1,2014-10-23T21:50:00Z,26.0070,-85.6480,5.0,9.0,50.0,11.0,'1111122,1111122,1111122' 
NDBC,ioos:station:wmo:42003:1,2014-10-23T22:50:00Z,26.0070,-85.6480,5.0,8.0,40.0,10.0,'1111122,1111122,1111122' 
NDBC,ioos:station:wmo:42003:1,2014-10-23T23:50:00Z,26.0070,-85.6480,5.0,8.0,40.0,9.0,'1111122,1111122,1111122' 
NDBC,ioos:station:wmo:42003:1,2014-10-24T00:50:00Z,26.0070,-85.6480,5.0,8.0,30.0,10.0,'1111122,1111122,1111122' 
NDBC,ioos:station:wmo:42003:1,2014-10-24T01:50:00Z,26.0070,-85.6480,5.0,8.0,30.0,10.0,'1111122,1111122,1111122' 
NDBC,ioos:station:wmo:42003:1,2014-10-24T02:50:00Z,26.0070,-85.6480,5.0,7.0,40.0,9.0,'1111122,1111122,1111122' 
NDBC,ioos:station:wmo:42003:1,2014-10-24T03:50:00Z,26.0070,-85.6480,5.0,7.0,40.0,9.0,'1111122,1111122,1111122' 
NDBC,ioos:station:wmo:42003:1,2014-10-24T04:50:00Z,26.0070,-85.6480,5.0,7.0,30.0,9.0,'1111122,1111122,1111122' 
NDBC,ioos:station:wmo:42003:1,2014-10-24T05:50:00Z,26.0070,-85.6480,5.0,7.0,30.0,8.0,'1111122,1111122,1111122' 
NDBC,ioos:station:wmo:42003:1,2014-10-24T06:50:00Z,26.0070,-85.6480,5.0,6.0,30.0,7.0,'1111122,1111122,1111122' 
NDBC,ioos:station:wmo:42003:1,2014-10-24T07:50:00Z,26.0070,-85.6480,5.0,6.0,10.0,8.0,'1111122,1111122,1111122' 
NDBC,ioos:station:wmo:42003:1,2014-10-24T08:50:00Z,26.0070,-85.6480,5.0,6.0,10.0,8.0,'1111122,1111122,1111122' 
NDBC,ioos:station:wmo:42003:1,2014-10-24T09:50:00Z,26.0070,-85.6480,5.0,6.0,10.0,7.0,'1111122,1111122,1111122' 
NDBC,ioos:station:wmo:42003:1,2014-10-24T10:50:00Z,26.0070,-85.6480,5.0,6.0,30.0,8.0,'1111122,1111122,1111122' 
NDBC,ioos:station:wmo:42003:1,2014-10-24T11:50:00Z,26.0070,-85.6480,5.0,6.0,20.0,7.0,'1111122,1111122,1111122' 
NDBC,ioos:station:wmo:42003:1,2014-10-24T12:50:00Z,26.0070,-85.6480,5.0,6.0,30.0,7.0,'1111122,1111122,1111122' 
NDBC,ioos:station:wmo:42003:1,2014-10-24T13:50:00Z,26.0070,-85.6480,5.0,6.0,40.0,7.0,'1111122,1111122,1111122' 
NDBC,ioos:station:wmo:42003:1,2014-10-24T14:50:00Z,26.0070,-85.6480,5.0,6.0,20.0,8.0,'1111122,1111122,1111122' 
NDBC,ioos:station:wmo:42003:1,2014-10-24T15:50:00Z,26.0070,-85.6480,5.0,6.0,10.0,8.0,'1111122,1111122,1111122' 
NDBC,ioos:station:wmo:42003:1,2014-10-24T16:50:00Z,26.0070,-85.6480,5.0,5.0,30.0,7.0,'1111122,1111122,1111122' 
NDBC,ioos:station:wmo:42003:1,2014-10-24T17:50:00Z,26.0070,-85.6480,5.0,6.0,40.0,8.0,'1111122,1111122,1111122' 
NDBC,ioos:station:wmo:42003:1,2014-10-24T18:50:00Z,26.0070,-85.6480,5.0,7.0,30.0,8.0,'1111122,1111122,1111122' 
NDBC,ioos:station:wmo:42003:1,2014-10-24T19:50:00Z,26.0070,-85.6480,5.0,6.0,30.0,8.0,'1111122,1111122,1111122' 
NDBC,ioos:station:wmo:42003:1,2014-10-24T20:50:00Z,26.0070,-85.6480,5.0,7.0,20.0,9.0,'1111122,1111122,1111122' 
NDBC,ioos:station:wmo:42003:1,2014-10-24T21:50:00Z,26.0070,-85.6480,5.0,7.0,10.0,9.0,'1111122,1111122,1111122' 
NDBC,ioos:station:wmo:42003:1,2014-10-24T22:50:00Z,26.0070,-85.6480,5.0,7.0,10.0,9.0,'1111122,1111122,1111122' 
NDBC,ioos:station:wmo:42003:1,2014-10-24T23:50:00Z,26.0070,-85.6480,5.0,7.0,10.0,9.0,'1111122,1111122,1111122' 
NDBC,ioos:station:wmo:42003:1,2014-10-25T00:50:00Z,26.0070,-85.6480,5.0,7.0,20.0,10.0,'1111122,1111122,1111122' 
NDBC,ioos:station:wmo:42003:1,2014-10-25T01:50:00Z,26.0070,-85.6480,5.0,7.0,10.0,10.0,'1111122,1111122,1111122' 
NDBC,ioos:station:wmo:42003:1,2014-10-25T02:50:00Z,26.0070,-85.6480,5.0,7.0,20.0,9.0,'1111122,1111122,1111122' 
NDBC,ioos:station:wmo:42003:1,2014-10-25T03:50:00Z,26.0070,-85.6480,5.0,7.0,10.0,10.0,'1111122,1111122,1111122' 